Regional Weather Roundup
Issued by NWS

Home | Current Version | Previous Version | Graphics & Text | Print | Product List | Glossary On
Versions: 1 2 3 4 5 6 7 8 9 10 11 12 13 14 15 16 17 18 19 20 21 22 23 24 25 26 27 28 29 30 31 32 33 34 35 36 37 38 39 40 41 42 43 44 45 46 47 48 49 50
899
ASUS43 KLOT 281503
RWRIL

ILLINOIS REGIONAL WEATHER ROUNDUP
NATIONAL WEATHER SERVICE CHICAGO/ROMEOVILLE IL
1000 AM CDT THU APR 28 2016

NOTE: "FAIR" INDICATES FEW OR NO CLOUDS BELOW 12,000 FEET WITH NO
SIGNIFICANT WEATHER AND/OR OBSTRUCTIONS TO VISIBILITY.

* THESE STATIONS ARE NOT UNDER NWS QUALITY CONTROL. THEY ALSO MAY NOT
  REPORT WEATHER SUCH AS PRECIPITATION OR FOG.

ILZ001-002-007-009-015-016-024-281600-
NORTHWEST ILLINOIS

CITY           SKY/WX    TMP DP  RH WIND       PRES   REMARKS
MOLINE         CLOUDY    50  46  86 E14       29.82R FOG
STERLING*      CLOUDY    46  45  93 E14       29.86S
$$

ILZ003-004-008-010-011-017-018-281600-
NORTH CENTRAL ILLINOIS

CITY           SKY/WX    TMP DP  RH WIND       PRES   REMARKS
ROCKFORD       CLOUDY    44  40  85 E9        29.90R
FREEPORT*      CLOUDY    42  41  95 E16       29.89R FOG
ROCHELLE*      CLOUDY    45  43  91 E14       29.88R FOG
DE KALB*       CLOUDY    44  41  89 E9        29.88R
$$

ILZ005-006-012>014-019>023-281600-
NORTHEAST ILLINOIS

CITY           SKY/WX    TMP DP  RH WIND       PRES   REMARKS
CHICAGO-OHARE  CLOUDY    45  40  82 NE12      29.87R
CHICAGO-MIDWAY CLOUDY    47  41  80 NE12      29.86R
AURORA         CLOUDY    47  43  86 NE9       29.88R FOG
LANSING*       CLOUDY    48  44  85 SE6       29.86R
WAUKEGAN       CLOUDY    41  35  79 NE13G21   29.90S
DUPAGE AIRPORT CLOUDY    45  39  79 NE9       29.87R
WHEELING       CLOUDY    43  37  79 NE9       29.90R
MORRIS*        CLOUDY    48  46  91 CALM      29.86R FOG
NORTHERLY ISL    N/A     45  41  86 NE14        N/A
NORTHERLY ISL    N/A     45  41  86 NE14        N/A
$$

LMZ740>746-281600-
SOUTHERN LAKE MICHIGAN

STATION/POSITION SKY/WX   TEMP    WIND        PRES    VSBY  WAVE
                          AIR SEA DIR/SP/G                  HT/PER
                          (F)     (DEG/KT/KT) (MB)    (MI)  (FT/S)
SOUTHERN BUOY              39 40   80/ 21/ 25 1011.7          5/ 5
HARRISON CRIB              44      70/ 16/ 17   N/A
BURNHAM HARBOR             45      60/ 11/ 14   N/A
CALUMET HARBOR             47     110/  9/ 11 1010.2R
BURNS HARBOR               47     110/  7/ 20 1011.2R
MICHIGAN CITY              45     110/  9/ 12   N/A
ST. JOSEPH                 45 46  140/ 16/ 19   N/A           3/ 5
$$

ILZ025>027-034>036-040-047-049-050-058-095>099-281600-
WEST-CENTRAL ILLINOIS

CITY           SKY/WX    TMP DP  RH WIND       PRES   REMARKS
QUINCY         MOSUNNY   56  47  71 W12       29.83R
MACOMB*        CLOUDY    55  52  88 W10       29.84R
PITTSFIELD*    SUNNY     59  49  68 W13       29.84R
$$

ILZ028>032-037-038-041>044-048-051>054-059>061-281600-
CENTRAL ILLINOIS

CITY           SKY/WX    TMP DP  RH WIND       PRES   REMARKS
BLOOMINGTON    CLOUDY    53  53 100 NE6       29.83S FOG
DECATUR        MOSUNNY   64  55  72 W9        29.81S
PEORIA         CLOUDY    55  51  86 NE7       29.82R FOG
LINCOLN*       SUNNY     62  56  80 CALM      29.81R
SPRINGFIELD    PTSUNNY   66  51  58 W8        29.81S
TAYLORVILLE    NOT AVBL
$$

ILZ033-039-045-046-055>057-062-063-281600-
EAST-CENTRAL ILLINOIS

CITY           SKY/WX    TMP DP  RH WIND       PRES   REMARKS
CHAMPAIGN      CLOUDY    62  57  83 SW8       29.81R
MATTOON        CLOUDY    62  57  83 W7        29.81R
$$

ILZ079-100>102-281600-
SOUTHWEST ILLINOIS

CITY           SKY/WX    TMP DP  RH WIND       PRES   REMARKS
BELLEVILLE     SUNNY     66  55  67 SW9       29.83R
CAHOKIA*       SUNNY     64  50  60 W12       29.84R
SPARTA*        MOSUNNY   65  53  65 SW9       29.86S
$$

ILZ064>066-069>071-074>076-080>082-084>086-088>090-092>094-281600-
SOUTH-CENTRAL ILLINOIS

CITY           SKY/WX    TMP DP  RH WIND       PRES   REMARKS
CARBONDALE     MOSUNNY   67  54  63 W10       29.86R
CAIRO*         SUNNY     69  57  66 W10       29.88R
EFFINGHAM*     PTSUNNY   64  62  93 W8        29.84R
MARION         SUNNY     70  55  60 SW9       29.86S
MT. VERNON     SUNNY     68  54  60 W9        29.85R
SALEM*         SUNNY     67  54  62 W10       29.84R
$$

ILZ067-068-072-073-078-083-087-091-281600-
SOUTHEAST ILLINOIS

CITY           SKY/WX    TMP DP  RH WIND       PRES   REMARKS
LAWRENCEVILLE  PTSUNNY   70  64  81 SW7       29.81S
FLORA*         SUNNY     69  57  64 W12       29.83R
HARRISBURG*    SUNNY     70  53  54 W10       29.86R
ROBINSON*      PTSUNNY   66  62  87 SW9       29.81S
CARMI*         SUNNY     69  55  60 W10G17    29.84R
$$

ABBREVIATIONS USED IN REMARKS
   TC - TEMPERATURE IN CELSIUS
  WCI - WIND CHILL INDEX
   HX - HEAT INDEX
  VSB - VISIBILITY
$$





USA.gov is the U.S. government's official web portal to all federal, state and local government web resources and services.